Location: Lane
(33.5226°N, 79.8788°W)
Time: 18:57:20
(UTC+00:00)

SR - Pass Details

Date: 28 September 2022
Orbit: 577 x 874 km, 66.7° (Epoch: 08 December)

Event Time Altitude Azimuth Distance (km) Brightness Sun altitude
Rises 12:42:04 0° 332° (NNW) 3,288 ? 17.7°
Reaches altitude 10° 12:44:35 10° 331° (NNW) 2,310 ? 18.2°
Maximum altitude 12:49:51 79° 246° (WSW) 736 ? 19.3°
Drops below altitude 10° 12:54:37 10° 160° (SSE) 2,098 ? 20.2°
Sets 12:56:49 0° 159° (SSE) 2,964 ? 20.7°
